| time (UTC) | temp F | wind direction | speed MPH | gust MPH | rain 1hr in | rain 24hr in | rain mn in | humidity % | barometer mb |
| 20260903004550 | 55 | 226 | 2.0 | 7.0 | 0.00 | 0.00 | 0.00 | 93 | 1015.0 |
| 20260903003050 | 55 | 189 | 2.0 | 4.0 | 0.00 | 0.00 | 0.00 | 93 | 1015.0 |
| 20260903001556 | 55 | 213 | 1.0 | 5.0 | 0.00 | 0.00 | 0.00 | 93 | 1015.3 |
| 20260903000056 | 55 | 180 | 1.0 | 4.0 | 0.00 | 0.00 | 0.00 | 93 | 1015.4 |
| 20260902234614 | 55 | 199 | 0.0 | 4.0 | 0.00 | 0.00 | 0.00 | 93 | 1015.5 |
| 20260902233045 | 55 | 202 | 1.0 | 4.0 | 0.00 | 0.00 | 0.00 | 92 | 1016.0 |
| 20260902231553 | 55 | 246 | 1.0 | 2.0 | 0.00 | 0.00 | 0.00 | 92 | 1016.1 |
| 20260902230050 | 55 | 229 | 1.0 | 2.0 | 0.00 | 0.00 | 0.00 | 92 | 1017.2 |
| 20260902224610 | 55 | 209 | 2.0 | 6.0 | 0.00 | 0.00 | 0.00 | 92 | 1017.1 |
| 20260902223051 | 55 | 167 | 2.0 | 8.0 | 0.00 | 0.00 | 0.00 | 91 | 1017.5 |
| 20260902221602 | 55 | 213 | 2.0 | 5.0 | 0.00 | 0.00 | 0.00 | 91 | 1017.8 |
| 20260902220050 | 55 | 205 | 2.0 | 4.0 | 0.00 | 0.00 | 0.00 | 91 | 1017.9 |
| 20260902214601 | 55 | 165 | 1.0 | 5.0 | 0.00 | 0.00 | 0.00 | 91 | 1018.0 |
| 20260902213050 | 55 | 196 | 2.0 | 6.0 | 0.00 | 0.00 | 0.00 | 90 | 1018.3 |
| 20260902211547 | 55 | 209 | 0.0 | 4.0 | 0.00 | 0.00 | 0.00 | 90 | 1018.4 |
| 20260902210057 | 55 | 210 | 1.0 | 6.0 | 0.00 | 0.00 | 0.00 | 89 | 1018.4 |
| 20260902204555 | 55 | 188 | 4.0 | 7.0 | 0.00 | 0.00 | 0.00 | 89 | 1018.7 |
| 20260902203049 | 56 | 196 | 3.0 | 5.0 | 0.00 | 0.00 | 0.00 | 88 | 1018.9 |
| 20260902201603 | 56 | 138 | 2.0 | 6.0 | 0.00 | 0.00 | 0.00 | 87 | 1018.9 |
| 20260902200132 | 57 | 160 | 1.0 | 2.0 | 0.00 | 0.00 | 0.00 | 87 | 1018.8 |
| 20260902194555 | 57 | 180 | 3.0 | 7.0 | 0.00 | 0.00 | 0.00 | 86 | 1018.3 |
| 20260902193051 | 58 | 0 | 0.0 | 2.0 | 0.00 | 0.00 | 0.00 | 86 | 1018.6 |
| 20260902191550 | 58 | 181 | 0.0 | 2.0 | 0.00 | 0.00 | 0.00 | 84 | 1019.0 |
| 20260902190103 | 58 | 212 | 0.0 | 2.0 | 0.00 | 0.00 | 0.00 | 82 | 1019.3 |
| 20260902184557 | 59 | 0 | 0.0 | 2.0 | 0.00 | 0.00 | 0.00 | 81 | 1019.4 |
| 20260902183057 | 59 | 224 | 0.0 | 2.0 | 0.00 | 0.00 | 0.00 | 80 | 1019.7 |
| 20260902181549 | 59 | 0 | 0.0 | 2.0 | 0.00 | 0.00 | 0.00 | 78 | 1019.7 |
| 20260902180117 | 60 | 345 | 0.0 | 2.0 | 0.00 | 0.00 | 0.00 | 77 | 1019.7 |
| 20260902174555 | 60 | 351 | 0.0 | 2.0 | 0.00 | 0.00 | 0.00 | 76 | 1019.8 |
| 20260902173047 | 60 | 0 | 0.0 | 2.0 | 0.00 | 0.00 | 0.00 | 77 | 1019.5 |
| 20260902171601 | 61 | 0 | 0.0 | 3.0 | 0.00 | 0.00 | 0.00 | 77 | 1019.7 |
| 20260902170103 | 61 | 260 | 0.0 | 2.0 | 0.00 | 0.00 | 0.00 | 76 | 1019.5 |
| 20260902164559 | 61 | 0 | 0.0 | 3.0 | 0.00 | 0.00 | 0.00 | 75 | 1019.5 |
| 20260902163058 | 62 | 231 | 0.0 | 2.0 | 0.00 | 0.00 | 0.00 | 74 | 1019.6 |
| 20260902161554 | 62 | 292 | 0.0 | 6.0 | 0.00 | 0.00 | 0.00 | 74 | 1019.0 |
| 20260902160106 | 64 | 213 | 1.0 | 3.0 | 0.00 | 0.00 | 0.00 | 72 | 1019.6 |
| 20260902154556 | 65 | 210 | 2.0 | 4.0 | 0.00 | 0.00 | 0.00 | 70 | 1019.6 |
| 20260902153054 | 66 | 198 | 2.0 | 5.0 | 0.00 | 0.00 | 0.00 | 69 | 1019.3 |
| 20260902151553 | 66 | 168 | 3.0 | 7.0 | 0.00 | 0.00 | 0.00 | 70 | 1018.7 |
| 20260902150049 | 67 | 236 | 1.0 | 7.0 | 0.00 | 0.00 | 0.00 | 66 | 1019.5 |
| 20260902144558 | 68 | 16 | 3.0 | 8.0 | 0.00 | 0.00 | 0.00 | 64 | 1018.8 |
| 20260902143057 | 68 | 213 | 4.0 | 9.0 | 0.00 | 0.00 | 0.00 | 64 | 1019.5 |
| 20260902141550 | 68 | 200 | 5.0 | 10.0 | 0.00 | 0.00 | 0.00 | 66 | 1019.4 |
| 20260902140048 | 69 | 214 | 4.0 | 9.0 | 0.00 | 0.00 | 0.00 | 64 | 1019.4 |
| 20260902134546 | 70 | 165 | 3.0 | 6.0 | 0.00 | 0.00 | 0.00 | 64 | 1019.5 |
| 20260902133046 | 70 | 224 | 2.0 | 7.0 | 0.00 | 0.00 | 0.00 | 61 | 1019.3 |
| 20260902131551 | 71 | 173 | 1.0 | 4.0 | 0.00 | 0.00 | 0.00 | 62 | 1019.5 |
| 20260902130045 | 71 | 52 | 1.0 | 5.0 | 0.00 | 0.00 | 0.00 | 60 | 1019.7 |
| 20260902124557 | 71 | 242 | 1.0 | 4.0 | 0.00 | 0.00 | 0.00 | 60 | 1019.9 |
| 20260902123045 | 69 | 183 | 3.0 | 6.0 | 0.00 | 0.00 | 0.00 | 64 | 1020.2 |
| 20260902121550 | 68 | 85 | 0.0 | 5.0 | 0.00 | 0.00 | 0.00 | 67 | 1020.6 |
| 20260902120048 | 67 | 182 | 2.0 | 4.0 | 0.00 | 0.00 | 0.00 | 67 | 1021.1 |
| 20260902114546 | 66 | 44 | 1.0 | 6.0 | 0.00 | 0.00 | 0.00 | 67 | 1021.7 |
| 20260902113107 | 65 | 180 | 2.0 | 6.0 | 0.00 | 0.00 | 0.00 | 71 | 1021.8 |
| 20260902111556 | 63 | 215 | 2.0 | 5.0 | 0.00 | 0.00 | 0.00 | 74 | 1022.3 |
| 20260902110043 | 63 | 162 | 1.0 | 2.0 | 0.00 | 0.00 | 0.00 | 75 | 1022.5 |
| 20260902104546 | 62 | 230 | 1.0 | 5.0 | 0.00 | 0.00 | 0.00 | 76 | 1022.8 |
| 20260902103048 | 60 | 234 | 1.0 | 4.0 | 0.00 | 0.00 | 0.00 | 78 | 1023.4 |
| 20260902101604 | 59 | 181 | 2.0 | 3.0 | 0.00 | 0.00 | 0.00 | 79 | 1023.9 |
| 20260902100046 | 60 | 207 | 0.0 | 2.0 | 0.00 | 0.00 | 0.00 | 79 | 1024.3 |
| 20260902094551 | 59 | 0 | 0.0 | 2.0 | 0.00 | 0.00 | 0.00 | 80 | 1024.9 |
| 20260902093055 | 57 | 57 | 1.0 | 2.0 | 0.00 | 0.00 | 0.00 | 82 | 1025.2 |
| 20260902091551 | 57 | 201 | 0.0 | 4.0 | 0.00 | 0.00 | 0.00 | 84 | 1025.3 |
| 20260902090047 | 56 | 236 | 3.0 | 6.0 | 0.00 | 0.00 | 0.00 | 86 | 1025.6 |
| 20260902084551 | 56 | 0 | 1.0 | 3.0 | 0.00 | 0.00 | 0.00 | 84 | 1025.6 |
| 20260902083046 | 56 | 73 | 1.0 | 3.0 | 0.00 | 0.00 | 0.00 | 87 | 1025.6 |
| 20260902081552 | 55 | 217 | 2.0 | 3.0 | 0.00 | 0.00 | 0.00 | 88 | 1025.9 |
| 20260902080059 | 55 | 198 | 0.0 | 2.0 | 0.00 | 0.00 | 0.00 | 89 | 1026.1 |
| 20260902074546 | 55 | 222 | 2.0 | 4.0 | 0.00 | 0.00 | 0.00 | 90 | 1026.1 |
| 20260902073044 | 54 | 269 | 1.0 | 4.0 | 0.00 | 0.00 | 0.00 | 91 | 1026.1 |
| 20260902071555 | 54 | 169 | 0.0 | 2.0 | 0.00 | 0.00 | 0.00 | 92 | 1026.3 |
| 20260902070051 | 54 | 0 | 1.0 | 3.0 | 0.00 | 0.00 | 0.00 | 92 | 1026.3 |
| 20260902064555 | 54 | 0 | 0.0 | 2.0 | 0.00 | 0.00 | 0.00 | 93 | 1026.1 |
| 20260902063047 | 53 | 101 | 0.0 | 2.0 | 0.00 | 0.00 | 0.00 | 93 | 1026.2 |
| 20260902060050 | 53 | 63 | 0.0 | 2.0 | 0.00 | 0.00 | 0.00 | 93 | 1026.4 |
| 20260902054550 | 53 | 90 | 0.0 | 2.0 | 0.00 | 0.00 | 0.00 | 93 | 1026.5 |
| 20260902053057 | 53 | 209 | 1.0 | 2.0 | 0.00 | 0.00 | 0.00 | 92 | 1026.4 |
| 20260902051554 | 53 | 250 | 0.0 | 2.0 | 0.00 | 0.00 | 0.00 | 92 | 1026.3 |
| 20260902050100 | 53 | 208 | 1.0 | 3.0 | 0.00 | 0.00 | 0.00 | 91 | 1026.3 |
| 20260902044547 | 53 | 0 | 1.0 | 2.0 | 0.00 | 0.00 | 0.00 | 91 | 1026.1 |
| 20260902043044 | 53 | 85 | 0.0 | 2.0 | 0.00 | 0.00 | 0.00 | 91 | 1026.2 |
| 20260902041600 | 53 | 115 | 0.0 | 2.0 | 0.00 | 0.00 | 0.00 | 91 | 1025.9 |
| 20260902040050 | 53 | 163 | 0.0 | 2.0 | 0.00 | 0.00 | 0.00 | 91 | 1026.0 |
| 20260902034552 | 53 | 169 | 2.0 | 4.0 | 0.00 | 0.00 | 0.00 | 92 | 1026.0 |
| 20260902033105 | 53 | 196 | 2.0 | 5.0 | 0.00 | 0.00 | 0.00 | 92 | 1025.8 |
| 20260902031557 | 53 | 196 | 2.0 | 6.0 | 0.00 | 0.00 | 0.00 | 92 | 1025.6 |
| 20260902030043 | 52 | 184 | 2.0 | 4.0 | 0.00 | 0.00 | 0.00 | 91 | 1025.6 |
| 20260902024557 | 52 | 209 | 1.0 | 4.0 | 0.00 | 0.00 | 0.00 | 90 | 1025.5 |
| 20260902023104 | 52 | 203 | 1.0 | 3.0 | 0.00 | 0.00 | 0.00 | 90 | 1025.2 |
| 20260902021608 | 52 | 212 | 1.0 | 2.0 | 0.00 | 0.00 | 0.00 | 88 | 1025.3 |
| 20260902020055 | 52 | 205 | 1.0 | 2.0 | 0.00 | 0.00 | 0.00 | 88 | 1025.3 |
| 20260902014553 | 52 | 316 | 0.0 | 2.0 | 0.00 | 0.00 | 0.00 | 88 | 1025.3 |
| 20260902013048 | 51 | 227 | 0.0 | 2.0 | 0.00 | 0.00 | 0.00 | 89 | 1025.3 |
| 20260902011548 | 50 | 190 | 0.0 | 2.0 | 0.00 | 0.00 | 0.00 | 87 | 1025.5 |
| 20260902010057 | 51 | 197 | 2.0 | 3.0 | 0.00 | 0.00 | 0.00 | 84 | 1025.2 |